Location: Ao Por, Phuket, Thailand
(8.0591°N, 98.4362°E)
Time: 16:34:30
(UTC+07:00)

Envisat - Visible Passes

Search period start: 26 September 2021 00:00
Search period end: 06 October 2021 00:00
Orbit: 764 x 766 km, 98.2° (Epoch: 25 September)

Date Brightness Start Highest point End Pass type
(mag) Time Alt. Az. Time Alt. Az. Time Alt. Az.
26 Sep 3.0 05:31:05 10° N 05:36:04 61° WNW 05:41:04 10° SSW visible
27 Sep 4.1 04:54:28 10° NNE 04:59:19 46° ESE 05:04:10 10° S visible
28 Sep 5.8 04:19:25 10° ENE 04:22:31 16° E 04:25:37 10° SE visible
29 Sep 2.9 05:19:31 10° N 05:24:35 85° WNW 05:29:40 10° SSW visible
30 Sep 4.7 04:43:17 10° NE 04:47:49 33° E 04:52:22 10° SSE visible
01 Oct 6.1 04:09:20 10° E 04:11:01 12° E 04:12:43 10° ESE visible
01 Oct 3.4 05:45:07 10° N 05:49:50 40° WNW 05:54:34 10° SW visible
02 Oct 3.3 05:08:03 10° NNE 05:13:06 71° ESE 05:18:09 10° S visible
03 Oct 5.2 04:32:14 10° NE 04:36:19 25° E 04:40:24 10° SSE visible
04 Oct 3.1 05:33:25 10° N 05:38:21 55° WNW 05:43:19 10° SSW visible
05 Oct 3.9 04:56:42 10° NNE 05:01:37 51° ESE 05:06:31 10° S visible
